Location: White Mills Observatory
(37.5374°N, 86.0303°W)
Time: 20:16:58
(UTC-04:00)

Hubble Space Telescope - Visible Passes

Search period start: 26 April 2015 00:00
Search period end: 06 May 2015 00:00
Orbit: 542 x 546 km, 28.5° (Epoch: 25 April)

Date Brightness Start Highest point End Pass type
(mag) Time Alt. Az. Time Alt. Az. Time Alt. Az.
30 Apr 3.1 22:17:29 10° SSW 22:18:06 12° SSW 22:18:06 12° SSW visible
01 May 2.6 22:08:32 10° SW 22:10:30 17° S 22:10:30 17° S visible
02 May 2.3 21:59:40 10° SW 22:02:44 21° S 22:02:44 21° S visible
03 May 2.1 21:50:52 10° SW 21:54:06 22° S 21:54:51 21° SSE visible
04 May 2.2 21:42:07 10° SW 21:45:25 23° S 21:46:53 19° SSE visible
05 May 2.2 21:33:24 10° SW 21:36:44 23° S 21:38:49 16° SE visible
